Theta_e
348 355 362 361 361 362 362 362 361 362 361 361 360 360 361 361 361 361 361 360 359 358 358 358 357 356 355 353 353 356 354 356 358 353 356 356 357 358 359 357 358 357 361
352 356 362 362 362 361 361 362 362 361 361 360 361 361 361 361 360 361 360 359 359 358 358 357 356 356 355 353 356 353 352 355 358 359 359 359 357 354 358 358 358 357 361
353 356 358 364 361 362 360 361 361 362 361 360 361 361 362 362 361 358 359 359 356 357 357 357 357 356 355 355 354 355 357 357 356 356 358 355 353 357 359 359 357 360 361
353 354 356 363 363 361 360 360 360 359 359 360 358 357 357 357 356 356 357 357 356 356 356 357 357 357 357 357 357 356 354 357 358 357 354 354 353 357 358 358 359 358 360
351 353 356 361 360 359 361 360 362 360 360 360 361 360 359 358 357 357 356 356 356 355 355 357 357 359 359 359 359 358 358 355 355 356 351 350 349 352 359 359 360 360 360
350 350 360 362 360 361 361 362 361 360 361 360 359 358 357 355 355 354 354 354 355 357 358 358 357 359 359 357 358 359 358 359 359 352 350 351 351 355 357 359 360 360 360
349 352 355 361 361 362 361 360 360 360 358 357 356 354 353 352 353 355 358 359 359 358 357 356 356 356 357 359 359 359 360 359 356 353 351 351 351 357 360 360 360 360 360
352 353 354 360 361 359 359 360 360 359 357 355 354 353 353 355 358 357 358 358 358 358 357 354 355 355 356 358 359 360 360 360 358 353 351 350 353 357 361 363 364 361 360
353 351 349 353 356 358 356 357 358 356 356 355 355 354 357 358 359 358 357 356 359 358 357 356 357 356 358 360 358 359 360 361 355 354 354 350 354 359 360 364 363 362 363
351 350 349 350 349 346 349 355 357 356 356 356 356 357 360 361 362 361 363 359 359 359 359 360 361 362 363 363 363 362 361 360 356 353 352 350 358 359 362 364 362 361 362
348 347 348 349 348 345 346 352 358 357 357 358 358 360 360 354 349 355 359 361 363 363 363 365 367 366 365 364 364 365 365 355 352 352 352 354 361 363 362 362 361 360 360
341 343 344 347 348 346 350 351 352 352 352 351 351 352 346 348 342 351 358 362 363 364 366 369 369 366 367 357 355 358 356 352 351 352 351 358 359 357 357 358 358 358 358
340 340 343 346 348 344 344 345 348 347 348 349 349 348 344 348 345 346 347 349 350 356 352 353 353 353 355 354 352 351 352 348 350 348 353 358 359 357 352 354 354 355 355
337 339 342 345 347 345 341 345 344 345 346 347 352 347 345 346 346 348 348 348 350 351 349 349 348 350 351 351 351 349 349 350 349 349 353 359 359 358 357 356 354 354 352
335 338 340 344 345 343 339 342 342 345 348 349 353 351 347 347 348 350 351 349 349 349 350 348 346 346 351 349 348 349 351 349 347 349 349 358 357 356 354 352 352 353 354
337 337 338 341 343 343 341 346 345 346 346 346 348 350 353 348 351 352 349 349 348 349 350 353 348 348 349 347 347 350 350 348 349 348 349 350 355 354 350 348 347 346 346
337 337 339 341 343 343 347 345 345 346 348 348 349 353 354 353 350 344 345 347 350 350 351 352 350 350 347 347 345 348 350 347 350 348 347 346 349 350 349 349 348 347 344
337 338 341 345 343 344 346 348 348 350 348 347 348 351 353 353 348 339 348 351 353 353 351 349 349 348 350 345 343 344 346 348 349 347 347 344 344 343 348 349 346 343 341
338 339 340 342 340 343 347 347 347 350 348 348 348 349 351 352 345 350 350 354 354 352 350 350 347 347 348 345 344 343 346 346 346 346 343 343 340 340 339 346 345 343 342
339 339 340 340 340 342 347 347 347 346 347 345 349 351 344 348 350 348 353 355 353 350 351 350 347 346 346 342 344 343 342 344 345 342 339 341 339 338 336 337 336 336 342
338 338 337 337 337 341 343 342 342 341 343 342 347 351 349 350 353 351 353 354 353 352 350 351 349 342 339 334 329 335 340 340 345 339 337 336 338 338 335 336 334 334 335
336 337 336 336 336 340 343 340 342 345 345 347 348 350 350 345 351 353 352 353 353 351 351 350 347 342 335 330 326 322 327 328 325 334 333 334 334 339 336 335 334 330 330
334 335 335 336 336 339 345 344 345 344 341 342 346 345 347 348 346 354 354 354 354 353 350 349 346 340 328 330 325 322 315 317 318 324 328 330 333 334 333 332 333 330 327
334 337 336 336 338 341 345 343 342 339 336 336 336 341 345 346 349 355 354 354 353 353 351 350 349 341 330 323 325 319 316 320 317 313 314 320 318 328 330 330 331 328 326
334 337 337 338 340 342 343 345 342 339 337 340 341 343 343 347 348 349 354 356 354 354 351 350 343 333 332 323 319 318 310 308 308 305 302 307 311 320 324 327 328 325 326
334 338 338 341 340 341 341 344 344 341 340 338 338 339 343 343 347 347 353 355 354 355 352 351 343 330 324 322 320 316 308 307 308 307 305 305 307 317 321 326 325 324 325
Wind_Speed
3 4 9 11 13 14 13 13 13 11 12 13 13 13 12 11 11 13 12 12 12 10 9 9 7 5 5 4 3 7 5 5 8 7 7 5 5 6 7 3 4 4 7
9 5 10 12 13 13 13 12 13 12 13 13 12 12 12 11 12 12 11 10 10 9 8 7 6 5 4 4 5 5 3 5 7 9 8 7 6 4 4 3 4 4 7
9 6 7 11 12 12 11 12 13 13 13 13 12 12 11 11 11 10 9 9 8 8 7 6 6 5 5 4 5 5 7 7 7 7 7 2 2 4 4 4 3 7 5
9 5 5 11 12 13 12 13 12 13 12 11 10 10 9 9 9 9 9 8 7 7 5 5 6 6 6 7 8 8 7 7 7 7 3 0 3 6 5 4 4 4 6
7 6 7 12 12 11 10 11 11 11 11 11 9 10 9 9 8 8 8 6 5 5 6 7 7 7 8 9 8 8 9 8 8 7 3 3 2 4 8 8 7 8 8
7 6 10 13 12 11 10 10 10 10 9 9 8 8 6 6 5 5 5 6 7 8 8 7 7 6 6 5 4 6 6 9 10 5 4 5 5 9 10 12 11 11 11
6 6 6 12 11 10 10 8 8 8 7 6 5 4 3 2 3 4 5 5 5 7 7 7 7 6 6 6 6 7 7 6 5 4 5 5 5 10 13 12 11 11 11
8 5 5 10 11 9 9 8 7 6 6 5 4 2 1 2 3 2 1 3 4 4 6 5 4 4 5 6 7 7 8 7 5 3 5 4 7 11 16 13 12 13 14
5 5 5 4 7 9 8 7 6 6 5 5 3 2 3 2 4 4 3 3 4 5 5 7 7 6 7 7 6 7 7 8 5 3 4 3 7 12 13 14 14 14 15
5 5 5 4 4 3 3 7 7 6 5 4 3 4 5 5 6 6 6 6 6 6 7 8 9 8 7 8 8 10 9 8 2 3 2 3 7 13 13 14 14 13 14
5 4 4 4 4 4 3 4 5 5 5 4 4 6 7 3 3 6 6 8 9 7 8 9 10 9 8 7 8 9 8 2 3 3 3 6 9 4 3 7 8 10 12
5 5 5 5 4 3 3 3 2 3 3 3 4 4 4 3 3 3 5 6 7 6 8 10 9 9 8 3 3 5 2 3 2 1 3 5 6 5 5 4 4 6 10
6 4 6 5 5 5 3 2 1 2 2 3 5 3 3 4 3 2 2 3 3 4 3 4 4 3 3 3 2 2 3 4 2 1 2 6 6 5 3 1 3 6 7
6 7 6 6 5 5 2 2 2 2 2 3 4 3 2 3 4 2 2 4 4 2 3 4 2 3 3 2 3 5 4 3 1 2 2 5 6 7 10 10 9 7 3
6 6 6 6 5 5 4 3 3 4 3 4 4 4 3 4 4 3 3 3 4 3 2 2 1 2 2 1 3 5 4 4 4 3 2 9 11 12 13 13 12 12 13
7 6 5 6 6 5 6 5 4 3 5 4 4 4 4 3 3 1 3 3 2 2 3 3 1 3 2 3 3 5 5 4 4 4 3 5 12 13 15 13 12 12 12
8 7 8 7 7 7 5 4 4 4 3 4 4 4 3 4 3 2 2 3 2 3 4 3 3 3 3 2 4 5 5 6 4 4 3 1 6 12 15 13 12 12 11
7 9 7 6 7 7 5 2 2 3 4 4 2 2 5 3 3 2 3 4 3 2 2 3 2 3 2 4 4 4 4 4 5 5 3 3 3 4 10 13 13 11 11
11 9 7 6 7 6 3 1 1 4 3 3 3 2 3 2 1 1 3 4 4 3 4 3 2 1 2 2 2 2 3 4 4 5 6 6 2 3 3 10 11 11 11
9 8 7 5 5 5 2 1 2 3 4 3 1 2 3 2 2 1 3 4 3 3 3 3 3 3 2 2 2 4 4 4 4 4 6 4 4 4 3 4 4 5 10
5 7 7 6 5 1 1 0 1 2 3 3 3 4 3 3 3 2 2 2 3 3 2 3 2 4 4 4 2 2 1 4 3 2 2 3 3 3 4 3 3 3 3
12 10 7 8 7 4 1 1 1 1 3 3 2 3 2 4 3 2 1 1 1 3 6 4 4 1 2 4 2 2 1 3 2 2 2 3 4 3 5 6 4 3 5
11 11 10 9 8 6 5 1 2 2 2 2 2 3 4 4 3 3 2 3 3 2 2 1 2 2 1 2 5 3 1 3 1 1 3 4 5 4 4 4 2 4 5
13 10 8 8 8 7 6 3 3 2 1 2 1 2 5 4 3 3 2 3 3 1 2 2 2 2 2 2 3 4 4 2 2 2 2 1 3 4 5 4 4 5 5
12 11 10 8 7 7 7 6 4 3 2 2 3 5 3 3 2 1 3 4 3 1 2 2 2 3 1 1 0 1 3 3 3 3 2 3 1 4 1 4 6 5 4
9 9 8 8 8 7 7 7 8 6 4 2 3 3 2 1 2 4 4 4 3 3 2 2 2 3 2 3 1 1 1 1 1 1 0 2 1 3 3 3 6 4 3
Wind_Direction
200 183 132 125 122 122 127 127 128 125 122 119 125 124 121 120 118 118 123 125 119 125 133 142 150 154 164 172 210 221 225 223 236 246 259 276 271 272 266 202 124 127 143
142 157 145 138 129 125 125 131 132 132 124 124 129 128 124 128 116 122 118 119 125 131 140 136 133 140 151 167 182 200 231 237 232 240 245 261 263 236 227 213 197 122 131
138 149 142 131 134 131 131 134 136 133 130 130 130 133 132 124 121 122 129 138 147 140 138 139 154 163 169 180 185 217 209 209 225 240 246 205 276 232 228 257 192 141 130
139 133 150 143 143 140 147 146 142 134 127 123 123 120 123 126 127 135 143 150 154 158 165 180 196 199 194 203 207 209 215 221 227 225 257 316 256 253 250 265 154 151 152
128 136 159 142 144 149 138 138 135 122 123 125 132 138 135 137 145 150 154 166 177 183 203 213 214 213 210 208 214 217 215 225 232 241 227 238 267 266 229 227 197 183 178
133 149 148 149 149 148 140 134 127 126 132 135 140 143 149 155 160 172 184 189 205 212 215 216 219 222 218 210 208 230 234 231 231 232 233 246 225 243 245 227 208 195 194
148 158 146 149 149 145 141 138 139 141 143 151 156 152 156 175 214 223 220 229 227 229 224 236 251 249 234 244 241 235 252 259 244 227 220 222 240 248 232 233 221 210 204
148 141 153 156 155 158 155 156 160 160 169 168 174 184 218 265 267 257 339 256 243 236 247 254 257 245 233 232 238 239 240 236 237 216 240 231 227 248 242 228 221 212 213
141 134 150 161 165 164 168 173 185 190 191 201 206 221 249 272 283 268 254 249 253 239 244 253 256 250 253 254 244 240 232 248 230 210 209 206 248 246 255 224 224 217 211
144 151 162 166 148 163 185 188 206 210 214 232 258 266 280 282 291 281 263 252 252 262 264 263 265 263 256 262 261 248 239 233 229 252 231 238 247 243 252 220 230 228 224
154 169 172 180 177 177 201 227 223 238 249 264 292 312 318 307 292 271 263 262 266 262 270 275 275 278 284 276 282 279 253 218 264 221 189 245 256 274 183 222 243 239 238
181 198 189 188 193 198 217 234 248 272 298 298 300 302 301 262 290 300 302 317 317 286 286 288 288 283 269 245 273 304 170 149 304 236 142 109 83 74 33 343 275 260 248
192 194 187 184 191 207 242 210 234 257 292 299 292 320 304 307 311 344 316 321 290 303 316 303 302 308 272 240 215 135 145 154 228 53 108 115 94 99 100 295 247 262 263
193 206 189 189 184 219 248 228 252 260 266 274 270 244 242 284 279 290 340 316 300 315 315 303 336 280 260 252 167 146 127 132 153 78 49 108 113 89 81 68 49 28 358
201 217 200 182 189 207 237 232 238 253 266 268 262 251 264 307 306 318 305 294 309 350 308 316 302 355 327 79 105 113 146 145 164 135 139 133 120 117 106 94 82 73 69
192 206 192 192 198 194 229 241 234 244 256 253 254 258 228 244 270 310 311 320 326 356 348 324 298 92 230 171 131 152 136 149 149 138 139 137 135 128 115 109 100 89 83
195 176 187 184 185 187 201 200 193 219 243 234 256 238 255 260 279 313 300 10 343 326 339 287 6 1 129 190 174 168 155 158 147 142 127 120 143 141 128 133 126 114 106
175 177 182 182 177 178 194 158 227 294 274 280 247 255 245 237 227 277 348 14 3 20 303 32 20 322 303 175 177 176 146 156 169 150 153 176 164 158 152 150 140 132 117
182 166 186 193 188 188 188 233 261 289 327 307 282 240 272 258 223 7 30 7 15 38 24 0 1 298 19 332 174 159 162 175 174 167 174 195 172 181 159 160 155 150 138
179 173 180 190 199 193 139 319 327 348 320 314 312 259 290 283 259 343 41 8 10 32 23 9 29 19 32 325 33 150 194 188 186 179 186 176 179 184 182 176 171 171 167
165 160 180 181 211 155 109 36 355 295 307 305 270 234 239 263 250 79 43 9 56 66 33 19 358 33 8 8 65 35 305 215 174 177 171 187 171 191 185 192 187 177 133
179 185 181 193 180 194 131 172 124 297 289 285 295 270 276 261 211 133 154 93 91 46 27 19 3 15 353 17 107 65 350 341 16 164 165 194 199 206 210 203 211 117 113
178 190 190 188 181 191 175 117 4 349 328 359 10 311 275 235 206 160 129 99 69 73 50 27 14 52 5 337 46 139 65 243 351 336 208 197 212 208 197 207 131 83 74
196 186 186 192 179 188 160 148 177 198 242 249 262 276 293 315 312 132 154 123 123 128 91 30 17 47 95 351 345 43 54 151 177 314 355 276 357 272 200 185 153 117 95
175 182 185 184 197 183 166 172 184 215 232 293 291 306 311 353 307 266 179 155 147 140 119 132 52 49 60 105 62 332 16 35 55 117 274 308 334 8 300 158 134 108 102
178 169 181 180 198 201 185 181 182 202 246 280 290 297 320 334 321 312 200 167 170 165 179 145 98 74 67 94 80 56 130 185 261 106 166 291 269 2 21 73 112 109 92